Regional Weather Roundup
Issued by NWS

Home | Current Version | Previous Version | Text Only | Print | Product List | Glossary On
Versions: 1 2 3 4 5 6 7 8 9 10 11 12 13 14 15 16 17 18 19 20 21 22 23 24 25 26 27 28 29 30 31 32 33 34 35 36 37 38 39 40 41 42 43 44 45 46 47 48 49 50
000
ASUS42 KKEY 022110
RWRKEY

FLORIDA REGIONAL WEATHER ROUNDUP FOR THE FLORIDA KEYS
NATIONAL WEATHER SERVICE KEY WEST FLORIDA
500 PM EDT WED SEP 02 2015

...SOUTH FLORIDA AND THE KEYS...

CITY           SKY/WX    TMP DP  RH WIND       PRES   REMARKS
FORT MYERS     FAIR      92  76  59 NW13      29.97F HX 104
SW REGIONAL AP FAIR      93  69  45 CALM      29.97F HX  98
NAPLES         FAIR      92  72  51 NW8       29.98F HX  99
MIAMI          PTSUNNY   89  76  65 SE13      29.99F HX 100
WEST KENDALL   FAIR      90  76  63 SE8       29.99F HX 101
HOMESTEAD      NOT AVBL
MARATHON       MOSUNNY   90  78  68 VRB5      29.98F HX 104
BOCA CHICA NAS PTSUNNY   90  74  59 VRB3      29.99F HX  99
KEY WEST INTL  SUNNY     91  76  61 N5        29.99F HX 103

...INTERNATIONAL WEATHER...

CITY           SKY/WX    TMP DP  RH WIND       PRES   REMARKS
NASSAU BAHAMAS MOSUNNY   88  75  66 NE7       30.01F HX  97
CANCUN MEXICO  PTSUNNY   88  79  74 E8        29.95F HX 102
COZUMEL MEXICO MOSUNNY   86  77  74 E7        29.95F HX  97

ADJACENT COASTAL WATERS...

STATION/POSITION TIME  SKY/WX   TEMP    WIND        PRES    WAVE
                                AIR SEA DIR/SP/G            HT/PER
                 (UTC)          (F)     (DEG/KT/KT) (MB)    (FT/S)
PULASKI SHOAL LI 2000                                 N/A
SAND KEY         2050            86      70/  5     1015.5F
SOMBRERO KEY     NOT AVBL
LONG KEY         2000            89 88   CALM  /  2 1017.0F
MOLASSES REEF    2100            86 88  110/  5/  5 1015.9F
FOWEY ROCKS      NOT AVBL

$$



USA.gov is the U.S. government's official web portal to all federal, state and local government web resources and services.